Location: Moonridge Observatory
(39.2268°N, 77.7914°W)
Time: 13:21:31
(UTC-04:00)

CZ-2C R/B - Visible Passes

Search period start: 03 July 2015 00:00
Search period end: 13 July 2015 00:00
Orbit: 704 x 909 km, 98.1° (Epoch: 02 July)

Date Brightness Start Highest point End Pass type
(mag) Time Alt. Az. Time Alt. Az. Time Alt. Az.
03 Jul 5.3 01:50:09 12° ESE 01:53:41 21° ENE 01:57:47 10° NNE visible
03 Jul 3.4 03:31:14 37° SSW 03:33:14 55° W 03:38:41 10° NNW visible
04 Jul 5.7 01:27:05 10° E 01:29:17 13° ENE 01:31:46 10° NE visible
04 Jul 3.2 03:06:21 40° SSE 03:08:33 90° E 03:14:07 10° NNW visible
04 Jul 5.1 04:47:28 10° WSW 04:49:11 11° W 04:50:29 10° WNW visible
05 Jul 3.8 02:41:29 32° SE 02:43:57 56° ENE 02:49:20 10° N visible
05 Jul 4.7 04:22:33 18° WSW 04:24:10 19° W 04:27:58 10° NW visible
06 Jul 4.6 02:16:36 21° ESE 02:19:25 34° ENE 02:24:19 10° N visible
06 Jul 4.1 03:57:41 27° SW 03:59:17 32° W 04:04:08 10° NW visible
07 Jul 5.2 01:51:44 13° ESE 01:54:56 21° ENE 01:59:00 10° NNE visible
07 Jul 3.4 03:32:49 39° SSW 03:34:31 52° W 03:39:50 10° NNW visible
08 Jul 5.7 01:28:15 10° E 01:30:30 13° ENE 01:33:01 10° NE visible
08 Jul 3.1 03:07:57 44° S 03:09:50 87° WSW 03:15:17 10° NNW visible
08 Jul 5.2 04:50:02 10° W 04:50:29 10° W 04:50:29 10° W visible
09 Jul 3.6 02:43:05 35° SE 02:45:13 58° ENE 02:50:30 10° N visible
09 Jul 4.7 04:24:10 17° WSW 04:25:27 18° W 04:28:59 10° NW visible
10 Jul 4.5 02:18:13 24° ESE 02:20:39 35° ENE 02:25:30 10° N visible
10 Jul 4.1 03:59:18 27° WSW 04:00:33 30° W 04:05:13 10° NW visible
11 Jul 5.2 01:53:21 15° ESE 01:56:09 22° ENE 02:00:12 10° NNE visible
11 Jul 3.4 03:34:26 41° SW 03:35:46 50° W 03:40:58 10° NNW visible
12 Jul 5.7 01:29:26 10° E 01:31:43 13° ENE 01:34:14 10° NE visible
12 Jul 3.1 03:09:35 50° S 03:11:04 83° WSW 03:16:26 10° NNW visible
